N0FDH Weather Reports


time (UTC)temp
C
wind
direction
speed
KPH
gust
KPH
rain 1hr
cm
rain 24hr
cm
rain mn
cm
humidity
%
barometer
mb
20260504035837 10 173 1.6 3.2 0.00 0.00 0.00 53 1001.8
20260504035336 10 187 1.6 3.2 0.00 0.00 0.00 51 1002.1
20260504034832 10 187 0.0 3.2 0.00 0.00 0.00 52 1002.5
20260504034330 10 187 1.6 1.6 0.00 0.00 0.00 52 1002.4
20260504033827 10 188 1.6 1.6 0.00 0.00 0.00 53 1002.4
20260504033325 10 187 0.0 1.6 0.00 0.00 0.00 50 1002.7
20260504032821 10 188 1.6 3.2 0.00 0.00 0.00 52 1002.7
20260504032318 10 188 1.6 3.2 0.00 0.00 0.00 51 1002.8
20260504031815 11 188 1.6 1.6 0.00 0.00 0.00 50 1003.0
20260504031313 11 188 1.6 1.6 0.00 0.00 0.00 48 1003.0
20260504030808 11 188 1.6 1.6 0.00 0.00 0.00 49 1003.1
20260504030306 11 188 1.6 1.6 0.00 0.00 0.00 50 1003.2
20260504025802 11 188 1.6 1.6 0.00 0.00 0.00 49 1003.1
20260504025259 11 202 0.0 0.0 0.00 0.00 0.00 52 1003.1
20260504024755 11 202 0.0 0.0 0.00 0.00 0.00 48 1003.3
20260504024252 11 202 0.0 0.0 0.00 0.00 0.00 44 1003.3
20260504023749 11 202 0.0 0.0 0.00 0.00 0.00 45 1003.2
20260504023245 11 202 0.0 0.0 0.00 0.00 0.00 46 1003.1
20260504022741 12 202 0.0 0.0 0.00 0.00 0.00 45 1003.3
20260504022238 12 202 0.0 0.0 0.00 0.00 0.00 44 1003.4
20260504021735 12 202 0.0 0.0 0.00 0.00 0.00 45 1003.2
20260504021232 12 202 0.0 1.6 0.00 0.00 0.00 43 1003.1
20260504020729 13 202 1.6 1.6 0.00 0.00 0.00 44 1003.2
20260504020226 13 202 1.6 1.6 0.00 0.00 0.00 41 1003.1
20260504015722 13 202 1.6 1.6 0.00 0.00 0.00 41 1003.3
20260504015218 13 202 1.6 1.6 0.00 0.00 0.00 41 1003.2
20260504014714 14 202 1.6 1.6 0.00 0.00 0.00 41 1003.2
20260504014211 14 202 1.6 1.6 0.00 0.00 0.00 40 1003.2
20260504013709 15 202 1.6 1.6 0.00 0.00 0.00 38 1003.3
20260504013206 15 203 0.0 0.0 0.00 0.00 0.00 35 1003.4
20260504012702 15 203 0.0 0.0 0.00 0.00 0.00 37 1003.3
20260504012200 15 203 1.6 1.6 0.00 0.00 0.00 35 1003.3
20260504011657 16 228 0.0 1.6 0.00 0.00 0.00 35 1003.3
20260504011153 16 228 0.0 0.0 0.00 0.00 0.00 33 1003.3
20260504010649 16 228 0.0 1.6 0.00 0.00 0.00 33 1003.2
20260504010145 16 229 0.0 1.6 0.00 0.00 0.00 32 1003.3
20260504005643 16 229 0.0 1.6 0.00 0.00 0.00 32 1003.2
20260504005139 17 229 0.0 1.6 0.00 0.00 0.00 32 1003.4
20260504004638 17 229 0.0 1.6 0.00 0.00 0.00 34 1003.5
20260504004134 17 230 1.6 3.2 0.00 0.00 0.00 35 1003.5
20260504003630 17 250 4.8 4.8 0.00 0.00 0.00 33 1003.6
20260504003127 17 225 1.6 3.2 0.00 0.00 0.00 34 1003.6
20260504002624 17 341 3.2 4.8 0.00 0.00 0.00 32 1003.8
20260504002121 17 272 3.2 3.2 0.00 0.00 0.00 32 1003.7
20260504001619 18 278 3.2 4.8 0.00 0.00 0.00 31 1003.8
20260504001115 18 304 1.6 3.2 0.00 0.00 0.00 29 1004.0
20260504000613 18 310 3.2 6.4 0.00 0.00 0.00 33 1004.1
20260504000110 17 333 3.2 9.7 0.00 0.00 0.00 32 1003.9
20260503235608 17 283 4.8 6.4 0.00 0.00 0.00 33 1003.9
20260503235104 18 345 3.2 6.4 0.00 0.00 0.00 30 1003.8
20260503234602 18 311 6.4 12.9 0.00 0.00 0.00 27 1004.0
20260503234100 18 279 9.7 12.9 0.00 0.00 0.00 28 1004.0
20260503233556 18 297 4.8 11.3 0.00 0.00 0.00 31 1003.9
20260503233052 18 222 9.7 16.1 0.00 0.00 0.00 28 1004.0
20260503232550 18 263 8.0 14.5 0.00 0.00 0.00 26 1003.8
20260503232047 18 313 9.7 12.9 0.00 0.00 0.00 28 1004.1
20260503231545 18 170 11.3 14.5 0.00 0.00 0.00 29 1004.1
20260503231041 18 245 14.5 16.1 0.00 0.00 0.00 32 1004.1
20260503230538 18 249 12.9 14.5 0.00 0.00 0.00 28 1004.1
20260503230036 18 296 11.3 20.9 0.00 0.00 0.00 30 1004.2
20260503225532 18 265 14.5 22.5 0.00 0.00 0.00 30 1004.0
20260503225027 18 49 9.7 11.3 0.00 0.00 0.00 29 1004.0
20260503224525 18 253 11.3 22.5 0.00 0.00 0.00 31 1003.9
20260503224023 18 282 6.4 9.7 0.00 0.00 0.00 29 1004.1
20260503223520 18 255 12.9 17.7 0.00 0.00 0.00 32 1004.0
20260503223016 18 248 6.4 9.7 0.00 0.00 0.00 30 1004.1
20260503222514 19 253 16.1 17.7 0.00 0.00 0.00 28 1004.0
20260503222012 19 318 9.7 14.5 0.00 0.00 0.00 28 1004.0
20260503221510 19 253 11.3 12.9 0.00 0.00 0.00 28 1003.8
20260503221007 20 310 8.0 11.3 0.00 0.00 0.00 27 1003.9
20260503220503 20 288 6.4 9.7 0.00 0.00 0.00 30 1004.0
20260503220000 19 300 6.4 12.9 0.00 0.00 0.00 28 1003.9
20260503215457 19 247 4.8 12.9 0.00 0.00 0.00 29 1003.9
20260503214954 19 262 9.7 12.9 0.00 0.00 0.00 27 1004.0
20260503214452 19 318 12.9 17.7 0.00 0.00 0.00 27 1003.9
20260503213949 19 239 11.3 17.7 0.00 0.00 0.00 26 1004.1
20260503213447 19 332 8.0 12.9 0.00 0.00 0.00 28 1004.1
20260503212943 20 330 9.7 14.5 0.00 0.00 0.00 26 1004.2
20260503212441 19 310 8.0 11.3 0.00 0.00 0.00 27 1004.2
20260503211938 18 311 6.4 9.7 0.00 0.00 0.00 25 1004.3
20260503211435 19 246 8.0 24.1 0.00 0.00 0.00 29 1004.1
20260503210930 19 244 11.3 14.5 0.00 0.00 0.00 27 1004.1
20260503210427 19 256 9.7 12.9 0.00 0.00 0.00 26 1004.3
20260503205922 19 343 11.3 12.9 0.00 0.00 0.00 23 1004.3
20260503205420 20 287 9.7 14.5 0.00 0.00 0.00 24 1004.3
20260503204916 20 239 8.0 11.3 0.00 0.00 0.00 24 1004.6
20260503204413 19 325 8.0 12.9 0.00 0.00 0.00 24 1004.2
20260503203910 20 315 11.3 12.9 0.00 0.00 0.00 25 1004.4
20260503203408 19 309 3.2 11.3 0.00 0.00 0.00 23 1004.3
20260503202904 20 311 3.2 14.5 0.00 0.00 0.00 29 1004.5
20260503202403 19 312 11.3 16.1 0.00 0.00 0.00 26 1004.5
20260503201901 20 319 8.0 16.1 0.00 0.00 0.00 25 1004.5
20260503201357 19 172 6.4 11.3 0.00 0.00 0.00 27 1004.4
20260503200855 19 314 6.4 11.3 0.00 0.00 0.00 25 1004.5
20260503200350 20 309 9.7 14.5 0.00 0.00 0.00 26 1004.5
20260503195848 19 293 12.9 16.1 0.00 0.00 0.00 26 1004.5
20260503195344 20 308 9.7 16.1 0.00 0.00 0.00 26 1004.7
20260503194842 19 291 8.0 12.9 0.00 0.00 0.00 27 1004.7
20260503194337 19 297 8.0 11.3 0.00 0.00 0.00 27 1004.6
20260503193834 18 331 8.0 11.3 0.00 0.00 0.00 27 1004.8
20260503193330 19 315 8.0 16.1 0.00 0.00 0.00 31 1004.5
20260503192826 19 290 16.1 20.9 0.00 0.00 0.00 28 1004.6
20260503192322 20 312 14.5 16.1 0.00 0.00 0.00 30 1004.7
20260503191818 19 204 4.8 12.9 0.00 0.00 0.00 31 1004.8
20260503191315 19 94 1.6 16.1 0.00 0.00 0.00 29 1004.8
20260503190812 19 257 6.4 11.3 0.00 0.00 0.00 34 1004.9
20260503190309 19 319 11.3 17.7 0.00 0.00 0.00 29 1004.8
20260503185806 18 166 6.4 11.3 0.00 0.00 0.00 31 1005.0
20260503185304 19 301 12.9 17.7 0.00 0.00 0.00 33 1004.9
20260503184801 19 295 9.7 14.5 0.00 0.00 0.00 30 1005.2
20260503184258 19 252 3.2 9.7 0.00 0.00 0.00 36 1005.0
20260503183754 18 325 9.7 12.9 0.00 0.00 0.00 34 1005.2
20260503183252 18 23 3.2 14.5 0.00 0.00 0.00 31 1005.3
20260503182749 18 338 11.3 16.1 0.00 0.00 0.00 34 1005.4
20260503182248 18 259 9.7 16.1 0.00 0.00 0.00 32 1005.0
20260503181744 18 259 14.5 20.9 0.00 0.00 0.00 37 1005.0
20260503181242 18 294 4.8 11.3 0.00 0.00 0.00 35 1005.4
20260503180738 18 279 11.3 17.7 0.00 0.00 0.00 35 1005.3
20260503180236 18 300 8.0 12.9 0.00 0.00 0.00 39 1005.3
20260503175732 19 285 11.3 14.5 0.00 0.00 0.00 38 1005.3
20260503175231 18 339 1.6 4.8 0.00 0.00 0.00 37 1005.4
20260503174726 18 334 6.4 12.9 0.00 0.00 0.00 39 1005.4
20260503174225 18 336 8.0 14.5 0.00 0.00 0.00 36 1005.3
20260503173725 18 284 6.4 9.7 0.00 0.00 0.00 38 1005.4
20260503173221 18 297 11.3 14.5 0.00 0.00 0.00 39 1005.4
20260503172718 18 334 6.4 16.1 0.00 0.00 0.00 38 1005.5
20260503172215 18 289 4.8 12.9 0.00 0.00 0.00 40 1005.5
20260503171711 18 22 3.2 9.7 0.00 0.00 0.00 39 1005.6
20260503171209 18 292 6.4 12.9 0.00 0.00 0.00 43 1005.5
20260503170705 18 324 11.3 12.9 0.00 0.00 0.00 42 1005.5
20260503170203 18 307 8.0 20.9 0.00 0.00 0.00 42 1005.5
20260503160124 17 278 8.0 11.3 0.00 0.00 0.00 46 1005.7
20260503150554 15 313 8.0 9.7 0.00 0.00 0.00 47 1005.4
20260503130944 12 179 4.8 6.4 0.00 0.00 0.00 54 1005.4
20260503130441 12 157 1.6 1.6 0.00 0.00 0.00 58 1005.7
20260503110338 10 146 1.6 1.6 0.00 0.00 0.00 66 1004.9
20260503090224 10 119 3.2 4.8 0.00 0.00 0.00 77 1005.7
20260503081150 10 247 3.2 3.2 0.00 0.00 0.00 63 1006.8
20260503080646 10 119 1.6 1.6 0.00 0.00 0.00 64 1006.3
20260503080143 10 119 0.0 1.6 0.00 0.00 0.00 64 1006.4
20260503072620 11 88 1.6 1.6 0.00 0.00 0.00 64 1006.9
20260503072117 11 88 0.0 0.0 0.00 0.00 0.00 61 1007.1
20260503071614 11 88 0.0 0.0 0.00 0.00 0.00 59 1007.0
20260503071111 11 88 0.0 1.6 0.00 0.00 0.00 60 1006.9
20260503070608 11 113 0.0 3.2 0.00 0.00 0.00 60 1006.9
20260503070106 11 113 1.6 1.6 0.00 0.00 0.00 60 1006.9
20260503055032 12 117 3.2 3.2 0.00 0.00 0.00 59 1007.5
20260503054528 12 109 3.2 3.2 0.00 0.00 0.00 58 1007.5
20260503054025 12 96 1.6 3.2 0.00 0.00 0.00 58 1007.4
20260503053523 12 123 3.2 3.2 0.00 0.00 0.00 59 1007.5
20260503053021 12 122 3.2 3.2 0.00 0.00 0.00 58 1007.6
20260503052517 12 146 4.8 4.8 0.00 0.00 0.00 61 1008.0
20260503052013 12 97 3.2 3.2 0.00 0.00 0.00 58 1008.0
20260503051509 12 116 1.6 3.2 0.00 0.00 0.00 59 1008.1
20260503051007 12 145 3.2 3.2 0.00 0.00 0.00 60 1008.2
20260503050502 12 119 1.6 3.2 0.00 0.00 0.00 57 1008.4
20260503050000 12 108 1.6 1.6 0.00 0.00 0.00 56 1008.3
20260503045457 12 117 1.6 1.6 0.00 0.00 0.00 56 1008.4
20260503044954 12 82 1.6 1.6 0.00 0.00 0.00 55 1008.5
20260503044451 13 101 1.6 1.6 0.00 0.00 0.00 53 1008.6
20260503043948 13 102 1.6 1.6 0.00 0.00 0.00 53 1008.5
20260503043444 13 118 0.0 1.6 0.00 0.00 0.00 52 1008.6
20260503042941 13 132 1.6 3.2 0.00 0.00 0.00 52 1008.7
20260503042437 13 106 0.0 1.6 0.00 0.00 0.00 51 1008.6
20260503041935 14 281 3.2 9.7 0.00 0.00 0.00 53 1008.8
20260503041431 14 247 4.8 6.4 0.00 0.00 0.00 50 1008.7
20260503040929 14 193 3.2 9.7 0.00 0.00 0.00 48 1009.0
20260503040426 14 270 3.2 4.8 0.00 0.00 0.00 47 1009.2